www.pogodaiklimat.ru

Погода и климат >> Архив погоды >> Норвегия >> Edgeoya


ПОГОДА в Edgeoya

  • Прогноз погоды в Edgeoya
  • Монитор погоды в Edgeoya
  • Климат города

АРХИВ ПОГОДЫ в Edgeoya

Время (UTC), дата Ветер
(напр.,м/с)
 
Видим.   Явления Облачность Т
(С)
Тd
(С)
f
(%)
Тe
(С)
Тes
(С)
Комфортность P
(гПа)
Po
(гПа)
Тmin
(С)
Tmax
(С)
R
(мм)
R24
(мм)
S
(см)
16 12.11 СЗ 7
{14}
н/о н/о -5.8 -11.8 63 -14 -14 1004.5 1002.9
18 12.11 С 10 н/о н/о -4.8 -10.5 64 -14 -14 1005.3 1003.7
19 12.11 СЗ 6
{11}
н/о н/о -5.1 -10.4 66 -13 -13 1005.8 1004.2
20 12.11 СЗ 10
{12}
н/о н/о -4.7 -9.5 69 -14 -14 1006.0 1004.4
21 12.11 СЗ 12
{14}
н/о н/о -4.5 -8.3 75 -15 -15 1006.7 1005.1
23 12.11 СЗ 13
{17}
н/о н/о -4.4 -8.2 75 -15 -15 1007.6 1006.0
22 12.11 С 13
{16}
н/о н/о -4.1 -7.6 77 -14 -14 1007.3 1005.7
00 13.11 СЗ 14
{17}
н/о н/о -4.3 -7.6 78 -15 -15 1007.4 1005.8
01 13.11 СЗ 12
{15}
н/о н/о -4.3 -6.8 83 -14 -14 1008.0 1006.4
02 13.11
{13}
н/о н/о -3.6 -8.6 68 1008.2 1006.6
03 13.11 С 11
{13}
н/о н/о -4.4 -8.4 74 -14 -14 1008.9 1007.3
05 13.11 С 11
{15}
н/о н/о -5.0 -9.3 72 -15 -15 1009.6 1008.0
04 13.11 С 12
{15}
н/о н/о -5.0 -9.9 68 -15 -15 1009.3 1007.7
06 13.11
{15}
н/о н/о -5.0 -9.4 71 1009.4 1007.8 -5.4 -3.5
07 13.11 С 9
{13}
н/о н/о -5.0 -10.1 67 -14 -14 1010.3 1008.7
09 13.11 С 8
{11}
н/о н/о -5.6 -10.2 70 -14 -14 1011.4 1009.7
10 13.11 С 7
{10}
н/о н/о -5.6 -10.7 67 -14 -14 1012.0 1010.4
11 13.11 С 6
{8}
н/о н/о -5.8 -10.7 68 -13 -13 1012.5 1010.9
12 13.11 С 4 н/о н/о -5.8 -10.5 69 -12 -12 1012.9 1011.3
13 13.11 С 5
{7}
н/о н/о -5.9 -9.5 76 -13 -13 1013.1 1011.5
14 13.11 С 4
{6}
н/о н/о -5.9 -11.0 67 -12 -12 1013.4 1011.8
15 13.11 С 3
{5}
н/о н/о -5.9 -10.5 70 -11 -11 1013.7 1012.1
16 13.11 С 6
{8}
н/о н/о -5.9 -9.7 74 -14 -14 1013.8 1012.2
17 13.11 СВ 3
{7}
н/о н/о -5.9 -10.6 69 -11 -11 1014.2 1012.6
18 13.11 СЗ 6
{8}
н/о н/о -6.0 -8.8 81 -14 -14 1014.1 1012.5
19 13.11 С 4
{7}
н/о н/о -5.9 -9.0 79 -12 -12 1014.5 1012.9
21 13.11 С 2
{5}
н/о н/о -5.7 -10.1 71 -10 -10 1015.0 1013.4
22 13.11 ЮЗ 1
{3}
н/о н/о -6.2 -9.9 75 -8 -8 1015.3 1013.6
23 13.11 ЮЗ 1
{3}
н/о н/о -6.6 -9.9 77 -9 -9 1015.2 1013.6
00 14.11 ЮЗ 2 н/о н/о -6.3 -10.0 75 -11 -11 1015.4 1013.8
02 14.11 ЮЗ 3
{3}
н/о н/о -6.5 -10.1 76 -12 -12 1015.7 1014.1
03 14.11 ЮЗ 2
{4}
н/о н/о -7.0 -10.1 79 -11 -11 1015.8 1014.1
04 14.11 ЮЗ 2
{5}
н/о н/о -6.9 -9.9 79 -11 -11 1015.5 1013.8
05 14.11 Ю 2
{2}
н/о н/о -6.7 -9.4 81 -11 -11 1015.3 1013.6
06 14.11 Ю 4 н/о н/о -6.5 -9.5 79 -13 -13 1015.0 1013.4
07 14.11 Ю 4
{5}
н/о н/о -6.6 -10.2 76 -13 -13 1015.0 1013.4
08 14.11 ЮЗ 5
{6}
н/о н/о -6.4 -10.5 73 -14 -14 1014.9 1013.3
09 14.11 Ю 6
{7}
н/о н/о -6.7 -10.8 73 -15 -15 1014.8 1013.2
10 14.11 Ю 7
{9}
н/о н/о -8.0 -11.9 73 -17 -17 1014.7 1013.1
11 14.11 Ю 7
{10}
н/о н/о -6.7 -9.8 79 -15 -15 1014.5 1012.9
12 14.11 Ю 8
{10}
н/о н/о -5.4 -8.3 80 -14 -14 1014.0 1012.4
13 14.11 Ю 9
{10}
н/о н/о -5.2 -7.8 82 -14 -14 1013.5 1011.9
14 14.11 Ю 10
{11}
н/о н/о -4.6 -7.0 83 -14 -14 1012.8 1011.1
15 14.11 Ю 10
{12}
н/о н/о -4.3 -7.2 80 -14 -14 1012.5 1010.9
16 14.11 Ю 9
{11}
н/о н/о -4.6 -8.2 76 -14 -14 1012.0 1010.4
17 14.11 Ю 7
{9}
н/о н/о -4.4 -9.2 69 -12 -12 1011.6 1010.0
18 14.11 ЮЗ 10
{12}
н/о н/о -4.6 -9.0 71 -14 -14 1010.7 1009.1 -8.0 -4.0
19 14.11 ЮЗ 8
{9}
н/о н/о -4.2 -9.2 68 -13 -13 1010.5 1008.9
20 14.11 Ю 8
{9}
н/о н/о -5.2 -9.3 73 -14 -14 1009.9 1008.3
21 14.11 Ю 8
{10}
н/о н/о -6.3 -10.0 75 -15 -15 1009.3 1007.7
22 14.11 ЮЗ 7
{8}
н/о н/о -5.1 -10.0 68 -13 -13 1008.7 1007.1
23 14.11 ЮЗ 7
{9}
н/о н/о -5.5 -10.3 69 -14 -14 1008.0 1006.4
01 15.11 ЮЗ 4
{7}
н/о н/о -3.6 -9.5 64 -9 -9 1006.6 1005.0
02 15.11 Ю 3
{5}
н/о н/о -3.9 -8.4 71 -9 -9 1006.3 1004.7
03 15.11 ЮЗ 1
{4}
н/о н/о -3.8 -6.1 84 -6 -6 1005.6 1004.0
04 15.11 Ю 2
{2}
н/о н/о -4.2 -5.6 90 -8 -8 1005.1 1003.5
05 15.11 ЮВ 1
{2}
н/о н/о -3.4 -4.8 90 -6 -6 1004.5 1002.9
06 15.11 Ю 1
{7}
н/о н/о -3.3 -4.5 91 -6 -6 1004.2 1002.6
07 15.11
{2}
н/о н/о -3.1 -3.8 95 1004.2 1002.6
08 15.11 С 9
{10}
н/о н/о -3.5 -3.9 97 -13 -13 1004.2 1002.6
09 15.11 С 11
{13}
н/о н/о -3.9 -4.7 94 -14 -14 1004.2 1002.6
10 15.11
{15}
н/о н/о -4.2 -6.5 84 1004.2 1002.6
11 15.11 С 12
{17}
н/о н/о -2.9 -3.3 97 -13 -13 1004.3 1002.8
12 15.11 С 14
{17}
н/о н/о -5.1 -6.2 92 -16 -16 1004.7 1003.1
13 15.11 С 13
{17}
н/о н/о -5.5 -7.1 88 -16 -16 1005.7 1004.1
14 15.11 СВ 11
{15}
н/о н/о -5.9 -7.4 89 -16 -16 1006.3 1004.7
15 15.11 С 13
{14}
н/о н/о -7.2 -8.0 94 -19 -19 1006.5 1004.9
16 15.11 С 14
{16}
н/о н/о -7.8 -9.3 89 -20 -20 1006.3 1004.7
17 15.11 С 13
{15}
н/о н/о -7.8 -9.4 88 -19 -19 1006.9 1005.3
18 15.11 С 12
{17}
н/о н/о -8.3 -10.0 88 -19 -19 1007.5 1005.9 -8.3 -2.9
19 15.11 С 12
{14}
н/о н/о -8.3 -9.9 88 -19 -19 1007.9 1006.3
20 15.11 С 11
{13}
н/о н/о -8.0 -9.7 88 -19 -19 1008.6 1007.0
22 15.11 С 10
{12}
н/о н/о -8.0 -10.0 85 -18 -18 1009.7 1008.1
23 15.11 СВ 7
{12}
н/о н/о -7.7 -10.7 79 -16 -16 1010.8 1009.2
00 16.11 СВ 6 н/о н/о -7.8 -10.9 78 -16 -16 1011.6 1009.9
01 16.11 СВ 7
{9}
н/о н/о -8.0 -11.7 75 -17 -17 1012.4 1010.7
02 16.11 С 6
{9}
н/о н/о -8.0 -12.0 73 -16 -16 1013.1 1011.5
03 16.11 С 5
{8}
н/о н/о -8.1 -12.1 73 -16 -16 1013.7 1012.1
04 16.11 С 5
{6}
н/о н/о -8.0 -11.9 73 -15 -15 1014.3 1012.7
05 16.11 С 4
{6}
н/о н/о -7.8 -11.5 75 -14 -14 1014.8 1013.2
06 16.11
{9}
н/о н/о -7.6 -11.5 74 1015.8 1014.1
07 16.11 С 2
{3}
н/о н/о -7.6 -11.0 77 -12 -12 1016.1 1014.4
08 16.11 С 2
{3}
н/о н/о -7.5 -10.3 80 -12 -12 1016.5 1014.8
09 16.11 З 1
{2}
н/о н/о -7.5 -9.9 83 -10 -10 1016.7 1015.1
10 16.11 ЮЗ 4
{4}
н/о н/о -8.7 -10.4 87 -16 -16 1017.0 1015.4
11 16.11 ЮЗ 3
{5}
н/о н/о -8.8 -10.5 87 -15 -15 1016.8 1015.2
12 16.11 ЮЗ 2
{5}
н/о н/о -8.6 -10.7 85 -13 -13 1017.0 1015.4
13 16.11 Ю 3
{4}
н/о н/о -7.9 -11.8 74 -14 -14 1017.2 1015.6
14 16.11 Ю 3
{4}
н/о н/о -8.0 -11.5 76 -14 -14 1017.2 1015.6
15 16.11 Ю 4
{5}
н/о н/о -7.6 -11.3 75 -14 -14 1017.0 1015.4
16 16.11 Ю 3
{5}
н/о н/о -7.5 -11.5 73 -13 -13 1017.4 1015.8
17 16.11 Ю 3
{4}
н/о н/о -7.0 -11.5 70 -13 -13 1017.6 1016.0
18 16.11 ЮЗ 2
{5}
н/о н/о -7.4 -11.3 74 -12 -12 1017.9 1016.2 -8.9 -6.7
19 16.11 ЮЗ 3
{3}
н/о н/о -7.4 -11.6 72 -13 -13 1018.2 1016.6
20 16.11 Ю 4
{6}
н/о н/о -6.3 -11.2 68 -13 -13 1018.6 1017.0
21 16.11 З 2
{4}
н/о н/о -7.6 -10.6 79 -12 -12 1019.1 1017.5
22 16.11 ЮЗ 3
{4}
н/о н/о -7.2 -10.3 78 -13 -13 1019.7 1018.1
23 16.11 ЮЗ 3
{3}
н/о н/о -7.5 -10.0 82 -13 -13 1020.5 1018.9
00 17.11 ЮЗ 4
{6}
н/о н/о -7.2 -9.9 81 -14 -14 1021.6 1019.9
01 17.11 ЮЗ 4
{5}
н/о н/о -7.4 -10.2 80 -14 -14 1022.5 1020.8
02 17.11 ЮЗ 4
{4}
н/о н/о -6.4 -9.7 77 -13 -13 1023.2 1021.5
03 17.11 Ю 4
{4}
н/о н/о -6.3 -10.7 71 -13 -13 1024.1 1022.4
05 17.11 ЮЗ 6
{7}
н/о н/о -8.0 -10.5 82 -16 -16 1025.5 1023.8
06 17.11 ЮЗ 6 н/о н/о -6.4 -9.8 77 -14 -14 1025.7 1024.1
07 17.11 ЮЗ 7
{7}
н/о н/о -5.4 -8.7 78 -14 -14 1026.8 1025.1
08 17.11 ЮЗ 10
{11}
н/о н/о -4.1 -7.3 78 -13 -13 1027.1 1025.4
09 17.11 ЮЗ 8
{11}
н/о н/о -4.1 -6.8 81 -13 -13 1028.1 1026.5
11 17.11 З 10
{11}
н/о н/о -3.1 -5.6 83 -12 -12 1029.2 1027.5
10 17.11 ЮЗ 9
{12}
н/о н/о -3.8 -6.1 84 -13 -13 1028.9 1027.3
12 17.11 ЮЗ 8
{12}
н/о н/о -4.1 -6.4 84 -13 -13 1029.2 1027.5
13 17.11 ЮЗ 8
{10}
н/о н/о -4.4 -7.0 82 -13 -13 1029.6 1028.0
14 17.11 З 10
{13}
н/о н/о -1.8 -4.7 81 -10 -10 1030.2 1028.6
15 17.11 З 13
{15}
н/о н/о -2.3 -6.0 76 -12 -12 1030.1 1028.5
17 17.11 З 9
{14}
н/о н/о -3.2 -6.3 79 -12 -12 1029.7 1028.1
16 17.11 З 14
{17}
н/о н/о -2.6 -6.3 76 -13 -13 1029.7 1028.0
18 17.11 ЮЗ 11
{17}
н/о н/о -1.9 -6.1 73 -11 -11 1029.4 1027.8 -7.2 -1.5
19 17.11 З 10
{16}
н/о н/о -1.5 -5.2 76 -10 -10 1029.3 1027.6
20 17.11 ЮЗ 6
{12}
н/о н/о -1.2 -4.8 76 -8 -8 1029.0 1027.4
21 17.11 ЮЗ 5
{8}
н/о н/о -0.1 -3.5 78 -6 -6 1028.0 1026.3
23 17.11 ЮЗ 13
{16}
н/о н/о +0.8 -1.3 86 -8 -8 1025.6 1024.0
22 17.11 ЮЗ 7
{9}
н/о н/о +0.3 -2.9 79 -7 -7 1026.4 1024.8
00 18.11 ЮЗ 13
{19}
н/о н/о +1.2 -1.2 84 -7 -7 1024.3 1022.7
01 18.11 ЮЗ 17
{21}
н/о н/о +1.4 -0.8 85 -8 -8 1022.7 1021.1
03 18.11 ЮЗ 13
{15}
н/о н/о +1.7 -0.1 88 -7 -7 1020.5 1018.9
04 18.11 ЮЗ 14
{19}
н/о н/о +1.8 +0.3 90 -7 -7 1019.1 1017.5
05 18.11 ЮЗ 12
{16}
н/о н/о +1.6 +0.7 94 -7 -7 1017.8 1016.2
06 18.11 ЮЗ 12 н/о н/о +1.5 +0.6 94 -7 -7 1015.7 1014.1
07 18.11 ЮЗ 12
{14}
н/о н/о +1.8 +0.9 94 -7 -7 1013.3 1011.7
08 18.11 ЮЗ 10
{15}
н/о н/о +2.1 +1.2 94 -6 -6 1012.3 1010.7
09 18.11 З 10
{13}
н/о н/о +2.8 +0.9 87 -5 -5 1011.0 1009.4
10 18.11 З 13
{14}
н/о н/о +1.5 +0.4 92 -7 -7 1010.0 1008.4
11 18.11 З 14
{17}
н/о н/о +2.6 +1.0 89 -6 -6 1009.1 1007.5
12 18.11 З 11
{17}
н/о н/о +3.1 +1.2 87 -4 -4 1009.8 1008.2
13 18.11 З 14
{16}
н/о н/о +3.3 +1.2 86 -5 -5 1009.2 1007.6
14 18.11 З 13
{16}
н/о н/о +3.3 +1.0 85 -5 -5 1008.4 1006.9
15 18.11 З 13
{16}
н/о н/о +3.1 +1.2 87 -5 -5 1007.9 1006.3
16 18.11 З 15
{17}
н/о н/о +3.8 +1.0 82 -4 -4 1007.3 1005.8
17 18.11 З 10
{14}
н/о н/о +3.0 +1.2 88 -4 -4 1007.4 1005.8
18 18.11 З 9
{17}
н/о н/о +2.6 +1.1 90 -5 -5 1006.3 1004.7 +1.4 +5.0
19 18.11 СЗ 7
{13}
н/о н/о +2.4 +1.1 91 -4 -4 1004.9 1003.4
20 18.11 ЮЗ 16
{19}
н/о н/о +2.7 +1.1 89 -6 -6 1003.1 1001.5
22 18.11 ЮЗ 17
{20}
н/о н/о +2.5 +0.7 88 -7 -7 1001.5 1000.0
23 18.11 ЮЗ 10
{18}
н/о н/о +2.9 +0.6 85 -4 -4 1000.0 998.4
00 19.11 ЮЗ 7 н/о н/о +3.0 +1.5 90 -3 -3 998.9 997.3
01 19.11 З 6
{12}
н/о н/о +3.8 +1.5 85 -2 -2 998.6 997.1
02 19.11 ЮЗ 10
{13}
н/о н/о +3.2 +1.7 90 -4 -4 996.6 995.0
03 19.11 З 8
{10}
н/о н/о +3.2 +0.9 85 -3 -3 996.0 994.4
04 19.11 З 12
{15}
н/о н/о +3.2 +0.6 83 -4 -4 994.5 992.9
05 19.11 З 13
{14}
н/о н/о +3.6 +0.7 81 -4 -4 993.5 992.0
06 19.11 З 18
{20}
н/о н/о +3.8 0.0 76 -5 -5 992.2 990.7
07 19.11 З 13
{20}
н/о н/о +2.3 -0.3 83 -6 -6 993.2 991.7
08 19.11 З 14
{16}
н/о н/о +2.6 -0.5 80 -6 -6 994.1 992.5
09 19.11 З 15
{19}
н/о н/о +2.3 -1.1 78 -6 -6 993.6 992.1
10 19.11 З 9
{17}
н/о н/о +2.0 -1.4 78 -5 -5 995.4 993.8
11 19.11 З 12
{14}
н/о н/о +1.3 -1.1 84 -7 -7 994.7 993.2
12 19.11 С 3
{20}
н/о н/о -0.9 -1.5 96 -6 -6 996.3 994.7
13 19.11 С 7
{8}
н/о н/о -1.2 -2.9 88 -9 -9 996.6 995.0
14 19.11
{9}
н/о н/о -1.7 -3.2 89 997.1 995.5
15 19.11
{11}
н/о н/о -1.8 -3.2 90 997.6 996.0
16 19.11 С 11
{13}
н/о н/о -1.9 -4.8 81 -11 -11 998.3 996.7

 

Местоположение метеостанции Edgeoya (Норвегия): широта 78.25 долгота 22.82 высота над уровнем моря 14 м.

В архиве по умолчанию представлена погода в Edgeoya за последнюю неделю. Архивные данные за месяц целиком и за предыдущие месяцы, начиная с января 2011 года, Вы можете получить, выбрав интересующий диапазон дат из раскрывающегося списка и нажав кнопку "Ввод!".


*Определитесь, кто Вы:
робот инопланетянин человек

Внимание! Время в таблицах - всемирное. Для получения местного времени необходимо прибавить поправку, которая в Edgeoya равна 1 ч.

Смотрите также архив погоды в соседних городах и на ближайших метеорологических станциях:

Погода в Pyramiden (Норвегия) (151 км)
Погода в Kongsoya (Норвегия) (153 км)
Погода в Svalbard Lufthavn (Норвегия) (166 км)
Погода в Баренцбурге (Шпицберген, Россия) (196 км)
Погода в Akseloya (Норвегия) (197 км)
Погода в Hopen (Норвегия) (201 км)
Погода в Hornsund (Норвегия) (222 км)
Погода в Verlegenhuken (Норвегия) (243 км)
Погода в Sorkappoya (Норвегия) (249 км)
Погода в Ny-Alesund (Норвегия) (251 км)

Пояснения к столбцам:

Ветер - указаны скорость ветра в м/с - средняя за 10 мин, порывы в срок и между сроками (в фигурных скобках) и направление, откуда дует ветер: С - северный, СВ - северо-восточный, В - восточный, ЮВ - юго-восточный, Ю - южный, ЮЗ - юго-западный, З - западный, СЗ - северо-западный.
Видимость - горизонтальная дальность видимости в метрах или километрах. При видимости от 1 до 10 км при отсутствии осадков обычно наблюдается дымка, при ухудшении видимости до 1 км и менее - туман. В сухую погоду видимость может ухудшаться дымом, пылью или мглою.
Явления - указаны атмосферные явления, наблюдавшиеся в срок или в последний час перед сроком; фигурными скобками обозначены явления, наблюдавшиеся между сроками (за 1-3 часа до срока); квадратными скобками обозначены град или гололедные отложения с указанием их диаметра в мм.
Облачность - указаны через наклонную черту общая и нижняя облачность в баллах и высота нижней границы облаков в метрах; квадратными скобками обозначены формы облаков: Ci - перистые, Cs - перисто-слоистые, Cc - перисто-кучевые, Ac - высококучевые, As - высокослоистые, Sc - слоисто-кучевые, Ns - слоисто-дождевые, Cu - кучевые, Cb - кучево-дождевые. Подробнее классификацию облаков см. в Атласе облаков (PDF).
T - Температура воздуха - температура, измеренная на высоте 2 м над землей.
Td - Температура точки росы - температура, при понижении до которой содержащийся в воздухе водяной пар достигнет насыщения.
f - Относительная влажность воздуха - влажноcть воздуха, измеренная на высоте 2 м над землей.
Te - Эффективная температура - температура, которую ощущает одетый по сезону человек в тени. Характеристика душности погоды. При расчете учитывается влияние влажности воздуха и скорости ветра на теплоощущения человека.
Tes - Эффективная температура на солнце - температура, которую ощущает человек, с поправкой на солнечный нагрев. Характеристика знойности погоды. Зависит от высоты солнца над горизонтом, облачности и скорости ветра. Ночью, в пасмурную погоду, а также при ветре 12 м/с и более поправка равна нулю.
P - Атмосферное давление - приведенное к уровню моря атмосферное давление.
Po - Атмосферное давление - измеренное на уровне метеостанции атмосферное давление.
Tmin - Минимальная температура - минимум температуры воздуха на высоте 2 м над землей.
Tmax - Максимальная температура - максимум температуры воздуха на высоте 2 м над землей.
R - Количество осадков - Количество выпавших осадков за период времени, мм. При наведении курсора мыши на число - период времени, за который выпало указанное количество осадков.
R24 - Количество осадков - Количество выпавших осадков за 24 часа, мм.
S - Снежный покров - Высота снежного покрова, см. При наведении курсора мыши на число - состояние снежного покрова и степень покрытия местности в баллах.